Total_Precipitation_Accumulation
1.16 1.36 1.55 1.73 1.91 2.04 2.13 2.15 2.18 2.23 2.32 2.38 2.33 2.36 2.45 2.49 2.44 2.43 2.41 2.30 2.16 2.04 1.95 1.89 1.83 1.77 1.79 1.75 1.80 1.88 1.94 2.02 2.00 1.55 1.33 1.32 1.44 1.45 1.49 1.40 1.34 1.31 1.25
1.06 1.17 1.38 1.48 1.64 1.82 1.94 1.96 1.97 2.01 2.06 2.10 2.15 2.19 2.22 2.27 2.31 2.33 2.31 2.26 2.20 2.07 1.98 1.94 1.86 1.84 1.93 1.94 1.95 1.94 1.91 1.88 1.89 1.70 1.42 1.33 1.33 1.29 1.26 1.30 1.31 1.29 1.19
1.02 1.06 1.20 1.35 1.45 1.54 1.66 1.76 1.81 1.85 1.93 1.98 1.98 2.07 2.10 2.08 2.13 2.18 2.19 2.19 2.19 2.14 2.09 2.06 1.98 1.96 2.01 1.99 1.96 1.93 1.87 1.82 1.79 1.74 1.56 1.41 1.39 1.34 1.33 1.31 1.28 1.27 1.19
0.94 1.02 1.05 1.21 1.34 1.40 1.46 1.55 1.61 1.63 1.72 1.78 1.82 1.84 1.90 1.93 1.98 2.07 2.14 2.14 2.15 2.14 2.12 2.08 2.02 1.99 1.95 1.90 1.86 1.81 1.81 1.85 1.86 1.85 1.72 1.57 1.50 1.47 1.49 1.54 1.49 1.37 1.29
0.87 0.98 1.02 1.08 1.17 1.29 1.40 1.48 1.57 1.58 1.61 1.67 1.71 1.74 1.75 1.79 1.87 1.97 2.07 2.16 2.16 2.16 2.15 2.07 1.96 1.92 1.86 1.82 1.79 1.74 1.77 1.90 1.98 1.98 1.85 1.69 1.57 1.57 1.60 1.52 1.54 1.49 1.42
0.85 0.90 0.98 1.06 1.10 1.16 1.25 1.37 1.47 1.57 1.62 1.65 1.73 1.77 1.80 1.85 2.07 2.17 2.13 2.13 2.13 2.09 2.00 1.87 1.80 1.79 1.74 1.79 1.82 1.80 1.87 2.03 2.15 2.09 1.89 1.66 1.43 1.35 1.44 1.60 1.74 1.81 1.73
0.90 0.89 0.93 1.02 1.12 1.17 1.19 1.28 1.45 1.56 1.73 1.81 1.84 1.92 1.94 1.97 2.06 1.95 1.98 1.97 1.99 1.98 1.88 1.75 1.65 1.54 1.54 1.42 1.57 1.71 1.75 1.86 1.92 1.86 1.77 1.49 1.35 1.32 1.57 1.85 1.86 1.78 1.54
0.93 0.96 0.98 1.00 1.13 1.24 1.27 1.32 1.44 1.55 1.71 1.86 1.92 1.96 1.96 1.96 1.97 1.84 1.83 1.67 1.64 1.67 1.68 1.65 1.58 1.52 1.45 1.44 1.49 1.57 1.47 1.43 1.44 1.36 1.36 1.36 1.36 1.39 1.63 1.91 1.94 1.91 1.67
0.94 0.98 1.03 1.07 1.19 1.30 1.32 1.36 1.43 1.52 1.60 1.68 1.76 1.78 1.75 1.74 1.76 1.67 1.67 1.55 1.52 1.46 1.42 1.46 1.51 1.45 1.55 1.67 1.62 1.57 1.39 1.24 1.27 1.35 1.42 1.44 1.53 1.56 1.67 2.06 2.25 2.31 2.06
1.04 1.08 1.12 1.21 1.34 1.41 1.41 1.40 1.39 1.42 1.44 1.42 1.44 1.42 1.40 1.41 1.50 1.48 1.49 1.40 1.43 1.36 1.34 1.37 1.52 1.48 1.59 1.71 1.57 1.55 1.45 1.25 1.18 1.18 1.18 1.20 1.19 1.27 1.51 1.75 2.22 2.58 2.24
1.12 1.14 1.16 1.24 1.32 1.39 1.38 1.33 1.32 1.29 1.28 1.25 1.22 1.20 1.18 1.22 1.29 1.31 1.36 1.32 1.31 1.33 1.33 1.29 1.32 1.57 1.65 1.66 1.55 1.40 1.42 1.38 1.23 1.13 1.12 1.08 1.08 1.13 1.21 1.33 1.68 2.35 2.58
1.05 1.07 1.07 1.10 1.16 1.26 1.30 1.27 1.24 1.25 1.24 1.21 1.20 1.22 1.20 1.21 1.23 1.25 1.33 1.38 1.40 1.34 1.26 1.17 1.24 1.50 1.49 1.47 1.40 1.42 1.55 1.47 1.26 1.26 1.22 1.17 1.12 1.09 1.10 1.18 1.32 1.56 1.87
0.94 0.99 0.98 0.96 0.98 1.06 1.14 1.19 1.21 1.23 1.24 1.22 1.22 1.24 1.22 1.19 1.24 1.33 1.32 1.41 1.44 1.31 1.26 1.36 1.40 1.38 1.31 1.29 1.37 1.42 1.38 1.36 1.45 1.51 1.37 1.18 1.07 1.05 1.09 1.19 1.26 1.36 1.48
0.80 0.87 0.91 0.91 0.91 0.92 0.97 1.07 1.15 1.21 1.22 1.19 1.21 1.25 1.21 1.13 1.15 1.23 1.27 1.32 1.38 1.34 1.37 1.42 1.37 1.27 1.21 1.23 1.31 1.32 1.28 1.33 1.52 1.59 1.45 1.23 1.12 1.16 1.23 1.33 1.49 1.54 1.69
0.71 0.76 0.79 0.86 0.91 0.95 0.96 1.04 1.15 1.21 1.33 1.39 1.31 1.26 1.30 1.29 1.28 1.42 1.47 1.41 1.46 1.49 1.46 1.32 1.22 1.17 1.15 1.13 1.14 1.16 1.22 1.33 1.46 1.41 1.44 1.41 1.33 1.33 1.36 1.44 1.67 1.82 1.90
0.75 0.75 0.78 0.86 0.90 0.92 0.95 1.01 1.10 1.16 1.23 1.28 1.32 1.34 1.30 1.35 1.39 1.47 1.52 1.57 1.60 1.58 1.50 1.35 1.21 1.12 1.07 1.04 1.06 1.11 1.15 1.24 1.36 1.47 1.51 1.50 1.50 1.48 1.48 1.51 1.72 1.93 1.92
0.81 0.83 0.83 0.87 0.93 0.92 0.91 0.95 1.02 1.06 1.09 1.11 1.18 1.26 1.29 1.32 1.33 1.39 1.49 1.54 1.50 1.48 1.46 1.34 1.19 1.13 1.08 1.03 1.04 1.07 1.10 1.12 1.27 1.48 1.59 1.61 1.62 1.59 1.60 1.66 1.76 1.87 1.82
0.79 0.85 0.88 0.91 0.96 0.96 0.93 0.94 0.95 0.98 1.01 1.03 1.07 1.16 1.22 1.27 1.33 1.38 1.43 1.45 1.44 1.34 1.27 1.25 1.20 1.14 1.13 1.14 1.15 1.17 1.16 1.17 1.27 1.41 1.50 1.57 1.67 1.75 1.76 1.73 1.76 1.81 1.77
0.77 0.81 0.85 0.91 0.96 0.99 0.98 0.96 0.96 0.94 0.95 0.97 0.99 1.10 1.20 1.24 1.31 1.37 1.34 1.29 1.25 1.19 1.14 1.13 1.12 1.15 1.19 1.23 1.25 1.27 1.31 1.36 1.40 1.54 1.57 1.59 1.68 1.82 1.80 1.68 1.67 1.64 1.60
0.72 0.82 0.89 0.93 0.94 0.94 0.98 1.00 0.99 0.96 0.94 0.93 0.94 1.03 1.16 1.25 1.25 1.21 1.18 1.14 1.16 1.16 1.12 1.12 1.12 1.13 1.21 1.28 1.32 1.36 1.42 1.43 1.47 1.57 1.63 1.66 1.71 1.82 1.82 1.68 1.58 1.57 1.48
0.74 0.77 0.85 0.89 0.92 0.94 0.97 1.01 1.01 0.99 0.98 0.96 0.94 1.03 1.26 1.28 1.15 1.04 1.04 1.09 1.14 1.16 1.15 1.15 1.15 1.19 1.25 1.32 1.38 1.41 1.46 1.47 1.50 1.62 1.68 1.66 1.67 1.68 1.58 1.56 1.53 1.51 1.53
0.76 0.77 0.78 0.83 0.90 0.96 1.03 1.04 1.04 1.01 0.97 0.96 0.95 1.00 1.14 1.10 1.06 1.05 1.05 1.04 1.05 1.08 1.11 1.19 1.21 1.20 1.34 1.52 1.65 1.71 1.60 1.51 1.50 1.62 1.65 1.55 1.51 1.51 1.50 1.54 1.53 1.54 1.56
0.78 0.80 0.80 0.84 0.92 1.01 1.05 1.03 1.05 1.03 1.00 0.97 0.98 0.98 0.99 1.00 1.03 1.06 1.08 1.07 1.05 1.04 1.05 1.13 1.22 1.18 1.20 1.41 1.64 1.96 2.06 1.83 1.70 1.80 1.91 1.75 1.58 1.55 1.60 1.62 1.54 1.54 1.49
0.78 0.82 0.85 0.87 0.93 0.98 1.01 1.02 1.02 1.03 1.03 1.01 0.99 0.98 0.99 1.01 1.02 1.03 1.04 1.07 1.07 1.04 1.03 1.09 1.16 1.16 1.17 1.34 1.52 1.67 1.83 1.97 2.18 2.24 2.21 2.19 1.91 1.65 1.62 1.61 1.51 1.47 1.48
0.78 0.83 0.88 0.91 0.95 0.98 0.99 1.00 1.00 1.00 1.02 1.03 1.01 1.00 1.00 1.00 0.98 0.97 0.98 1.00 1.02 1.02 0.97 1.00 1.08 1.12 1.17 1.27 1.42 1.53 1.67 1.85 2.08 2.22 2.15 2.05 1.86 1.65 1.61 1.59 1.51 1.48 1.47
0.77 0.81 0.85 0.88 0.93 0.97 1.01 1.02 1.02 1.03 1.05 1.05 1.03 1.03 1.03 1.00 0.95 0.93 0.93 0.95 0.97 0.96 0.92 0.92 0.96 1.03 1.13 1.24 1.29 1.42 1.57 1.56 1.55 1.61 1.85 2.00 1.86 1.63 1.58 1.64 1.53 1.49 1.47